Weather reports worldwide

Advertisment
Lentran, United Kingdom (99125): temperature & dewpoint: 18.08.2019 06:00:00 - 24.08.2019 06:00:00 (BST)Lentran, United Kingdom (99125): precipitation: 18.08.2019 06:00:00 - 24.08.2019 06:00:00 (BST)
Date & Time tt [°C] td [°C] rr [mm]
24.08.2019 06:00:00 15,3 10,8 0,0
24.08.2019 05:00:00 15,4 11,7 0,0
24.08.2019 04:00:00 14,4 12,4 0,0
24.08.2019 03:00:00 15,0 12,7 0,0
24.08.2019 02:00:00 16,3 12,6 0,0
24.08.2019 01:00:00 16,2 13,0 0,0
24.08.2019 00:00:00 15,0 12,8 0,0
23.08.2019 23:00:00 14,8 12,5 0,0
23.08.2019 22:00:00 14,6 12,4 0,0
23.08.2019 21:00:00 15,7 11,9 0,0
23.08.2019 20:00:00 16,5 11,1 0,0
23.08.2019 19:00:00 16,7 10,8 0,0
23.08.2019 18:00:00 16,8 11,2 0,0
23.08.2019 17:00:00 17,2 11,6 0,0
23.08.2019 16:00:00 17,6 12,0 0,0
23.08.2019 15:00:00 17,0 11,7 0,0
23.08.2019 14:00:00 17,5 11,9 0,0
23.08.2019 13:00:00 17,8 12,2 0,0
23.08.2019 12:00:00 17,0 12,5 0,0
23.08.2019 11:00:00 17,0 12,8 0,0
23.08.2019 10:00:00 16,9 13,1 0,0
23.08.2019 09:00:00 15,9 12,8 0,0
23.08.2019 08:00:00 15,4 12,8 0,0
23.08.2019 07:00:00 14,8 12,8 0,0
23.08.2019 06:00:00 14,6 13,1 0,2
23.08.2019 05:00:00 14,4 13,7 0,2
23.08.2019 04:00:00 14,5 13,4 0,0
23.08.2019 03:00:00 14,7 13,0 0,0
23.08.2019 02:00:00 13,4 12,3 0,2
23.08.2019 01:00:00 13,2 11,2 0,0
23.08.2019 00:00:00 13,9 10,1 0,0
22.08.2019 23:00:00 13,9 9,8 0,0
22.08.2019 22:00:00 13,7 9,9 0,0
22.08.2019 21:00:00 13,8 9,3 0,0
22.08.2019 20:00:00 14,6 9,5 0,0
22.08.2019 19:00:00 16,2 11,0 0,0
22.08.2019 18:00:00 15,7 9,6 0,0
22.08.2019 17:00:00 16,8 10,2 0,0
22.08.2019 16:00:00 17,3 11,6 0,0
22.08.2019 15:00:00 16,8 11,3 0,0
22.08.2019 14:00:00 16,5 9,9 0,0
22.08.2019 13:00:00 17,1 8,8 0,0
22.08.2019 12:00:00 16,5 10,4 0,0
22.08.2019 11:00:00 14,7 10,4 0,0
22.08.2019 10:00:00 13,8 9,2 0,0
22.08.2019 09:00:00 13,0 9,6 0,0
22.08.2019 08:00:00 12,3 9,7 0,0
22.08.2019 07:00:00 11,4 8,7 0,0
22.08.2019 06:00:00 11,0 8,7 0,0
22.08.2019 05:00:00 11,0 9,2 0,0
22.08.2019 04:00:00 11,2 8,6 0,0
22.08.2019 03:00:00 10,6 8,3 0,0
22.08.2019 02:00:00 10,5 8,3 0,0
22.08.2019 01:00:00 10,3 8,4 0,0
22.08.2019 00:00:00 9,8 8,1 0,0
21.08.2019 23:00:00 10,4 8,9 0,0
21.08.2019 22:00:00 11,6 10,4 0,0
21.08.2019 21:00:00 12,3 11,3 0,4
21.08.2019 20:00:00 12,7 11,4 0,6
21.08.2019 19:00:00 13,3 11,2 0,6
21.08.2019 18:00:00 15,8 9,9 0,0
21.08.2019 17:00:00 14,8 9,4 0,0
21.08.2019 16:00:00 15,2 10,6 0,0
21.08.2019 15:00:00 15,7 9,3 0,0
21.08.2019 14:00:00 15,6 9,9 0,0
21.08.2019 13:00:00 16,8 10,4 0,0
21.08.2019 12:00:00 17,1 11,0 0,0
21.08.2019 11:00:00 16,9 10,6 0,0
21.08.2019 10:00:00 16,4 11,5 0,0
21.08.2019 09:00:00 14,4 11,7 0,0
21.08.2019 08:00:00 12,9 11,4 0,0
21.08.2019 07:00:00 9,6 8,1 0,0
21.08.2019 06:00:00 9,3 8,8 0,0
21.08.2019 05:00:00 8,1 7,4 0,0
21.08.2019 04:00:00 8,2 7,1 0,0
21.08.2019 03:00:00 8,6 7,8 0,0
21.08.2019 02:00:00 7,8 7,0 0,0
21.08.2019 01:00:00 7,8 7,2 0,0
21.08.2019 00:00:00 8,2 7,7 0,0
20.08.2019 23:00:00 8,4 7,7 0,0
20.08.2019 22:00:00 9,4 8,6 0,0
20.08.2019 21:00:00 11,3 10,5 0,0
20.08.2019 20:00:00 12,4 11,3 0,2
20.08.2019 19:00:00 14,2 10,6 0,0
20.08.2019 18:00:00 15,4 8,9 0,0
20.08.2019 17:00:00 17,0 8,9 0,0
20.08.2019 16:00:00 16,8 7,0 0,0
20.08.2019 15:00:00 16,4 7,8 0,0
20.08.2019 14:00:00 17,3 8,1 0,0
20.08.2019 13:00:00 15,1 7,6 0,0
20.08.2019 12:00:00 14,7 8,8 0,0
20.08.2019 11:00:00 13,1 7,6 0,0
20.08.2019 10:00:00 12,6 8,6 0,0
20.08.2019 09:00:00 12,4 9,4 0,0
20.08.2019 08:00:00 9,9 8,6 0,0
20.08.2019 07:00:00 9,8 8,5 0,0
20.08.2019 06:00:00 9,7 8,4 0,0
20.08.2019 05:00:00 9,4 8,8 0,0
20.08.2019 04:00:00 9,8 8,4 0,0
20.08.2019 03:00:00 9,7 8,6 0,0
20.08.2019 02:00:00 9,8 8,9 0,0
20.08.2019 01:00:00 10,3 8,5 0,0
20.08.2019 00:00:00 9,9 8,2 0,0
19.08.2019 23:00:00 10,6 9,5 0,0
19.08.2019 22:00:00 11,2 9,1 0,0
19.08.2019 21:00:00 11,4 9,2 0,0
19.08.2019 20:00:00 11,5 9,7 0,2
19.08.2019 19:00:00 12,0 10,3 0,0
19.08.2019 18:00:00 12,7 11,7 0,0
19.08.2019 17:00:00 12,2 11,6 3,2
19.08.2019 16:00:00 13,8 11,2 0,4
19.08.2019 15:00:00 14,9 10,2 0,0
19.08.2019 14:00:00 17,6 10,3 0,0
19.08.2019 13:00:00 17,2 10,2 0,0
19.08.2019 12:00:00 15,9 10,3 0,0
19.08.2019 11:00:00 14,3 10,1 0,0
19.08.2019 10:00:00 14,4 10,9 0,0
19.08.2019 09:00:00 13,2 10,2 0,0
19.08.2019 08:00:00 12,3 10,5 0,0
19.08.2019 07:00:00 11,5 10,5 0,8
19.08.2019 06:00:00 12,1 9,7 0,0
19.08.2019 05:00:00 12,2 9,6 0,0
19.08.2019 04:00:00 11,8 9,5 0,0
19.08.2019 03:00:00 11,9 10,1 0,0
19.08.2019 02:00:00 11,7 10,3 0,4
19.08.2019 01:00:00 11,8 10,4 0,0
19.08.2019 00:00:00 11,9 10,3 0,4
18.08.2019 23:00:00 12,3 10,3 0,0
18.08.2019 22:00:00 12,5 10,0 0,0
18.08.2019 21:00:00 12,5 10,2 0,0
18.08.2019 20:00:00 13,3 10,4 0,0
18.08.2019 19:00:00 13,7 9,8 0,0
18.08.2019 18:00:00 14,1 10,5 0,0
18.08.2019 17:00:00 14,2 11,9 0,0
18.08.2019 16:00:00 14,1 11,1 0,2
18.08.2019 15:00:00 15,3 11,3 0,0
18.08.2019 14:00:00 16,3 13,7 0,4
18.08.2019 13:00:00 15,2 10,8 0,2
18.08.2019 12:00:00 16,2 11,0 0,0
18.08.2019 11:00:00 14,9 10,9 0,2
18.08.2019 10:00:00 13,1 9,8 0,0
18.08.2019 09:00:00 14,0 10,2 0,0
18.08.2019 08:00:00 12,7 10,0 0,0
18.08.2019 07:00:00 11,6 10,2 0,6
18.08.2019 06:00:00 12,2 10,1 0,0

tt = temperature
td = dewpoint
rr = precipitation

Next stations